Simultaneous Nadir Overpasses (SNOs) Predictions

Prediction of SNOs between NPP and LANDSAT-9 Satellite Orbit:

Table of predicted SNOs for the next 14.0 days since TLE Epoch: 11/10/2022
Index Date (NPP) Time (NPP) Lat,Lon (NPP) SZA (NPP ) Date (LANDSAT-9) Time (LANDSAT-9) Lat,Lon (LANDSAT-9) SZA (LANDSAT-9 ) Distance(km) Time Diff (sec)
1 11/10/2022 22:50:13 70.12,-166.13 87.35 11/10/2022 22:50:37 70.09,-166.10 87.33 3.18 24
2 11/10/2022 23:40:54 -69.98, 1.40 92.78 11/10/2022 23:40:07 -69.98, 1.36 92.79 1.64 47
3 11/13/2022 14:16:26 -70.43, 141.87 91.63 11/13/2022 14:17:37 -70.34, 142.48 91.72 25.15 71
4 11/13/2022 15:07:05 70.05, -50.24 88.01 11/13/2022 15:07:07 70.08, -50.25 88.03 2.93 2
5 11/13/2022 15:57:47 -69.96, 117.21 92.08 11/13/2022 15:56:37 -69.96, 117.22 92.08 0.47 70
6 11/16/2022 06:33:13 -70.15,-101.92 91.22 11/16/2022 06:34:09 -70.13,-101.93 91.24 2.07 56
7 11/16/2022 07:23:57 70.04, 65.56 88.68 11/16/2022 07:23:36 70.03, 65.57 88.67 0.75 21
8 11/16/2022 08:14:26 -69.26,-125.98 92.09 11/16/2022 08:13:17 -69.31,-127.78 92.04 71.15 69
9 11/18/2022 22:50:06 -70.14, 13.88 90.58 11/18/2022 22:50:38 -70.12, 13.93 90.60 3.25 32
10 11/18/2022 23:40:50 70.03,-178.65 89.33 11/18/2022 23:40:05 70.02,-178.57 89.31 3.40 45
11 11/21/2022 14:16:22 70.50, -38.22 90.39 11/21/2022 14:17:33 70.41, -37.39 90.30 32.30 71
12 11/21/2022 15:06:58 -70.09, 129.74 90.02 11/21/2022 15:07:07 -70.09, 129.77 90.03 1.13 9
13 11/21/2022 15:57:42 69.98, -62.78 89.88 11/21/2022 15:56:34 69.98, -62.74 89.87 1.78 68
14 11/24/2022 06:33:08 70.15, 78.13 90.59 11/24/2022 06:34:06 70.13, 78.08 90.57 2.51 58
15 11/24/2022 07:23:50 -70.05,-114.40 89.50 11/24/2022 07:23:36 -70.02,-114.44 89.53 2.89 14
16 11/24/2022 08:14:22 69.31, 54.00 89.76 11/24/2022 08:13:13 69.36, 52.30 89.82 66.96 69



Historial Predications of SNOs between NPP and LANDSAT-9
